Flag for Rwanda Weather past 2 weeks in Kigali, Rwanda

Now
81 °F

Partly sunny.


Feels Like: 81 °F
Forecast: 60 / 81 °F
Wind: 6 mph from Southeast

Location: Kigali Airport

Current Time: Sep 16, 2014 at 2:31:32 PM

Latest Report: Sep 16, 2014 at 2:00 PM


Visibility: N/A

Pressure: 30.09 "Hg

Humidity: 51%

Dew point: 61 °F

Location of KigaliLocation

Historic Weather in Kigali — Graph

°F

Kigali temperature yesterday

Maximum temperature yesterday: 82 °F (at 3:30 PM)
Minimum temperature yesterday: 61 °F (at 3:30 AM)
Average temperature yesterday: 71 °F

Past Weeks' High & Low Weather Summary

 TemperatureHumidityPressure
High86 °F (Sep 12, 3:00 PM)100% (Sep 2, 5:30 AM)30.30 "Hg (Sep 2, 5:30 AM)
Low52 °F (Sep 11, 2:00 AM)32% (Sep 12, 5:30 PM)30.01 "Hg (Sep 10, 4:00 PM)
Average69 °F77%30.14 "Hg
* Reported Sep 1 1:00 PM — Sep 16 1:30 PM, Kigali, Weather by CustomWeather, © 2014

Note: Actual official high and low records may vary slightly from our data, if they occured in-between our weather recording intervals... More about our weather records

Advertising

Kigali weather history for previous 24 hours

 ConditionsComfort  
Time TempWeatherWind HumidityBarometerVisibility
1:30 PM
Sep 16
79 °FPartly sunny.7 mph51%30.09 "HgN/A
1:00 PM79 °FPartly sunny.9 mph54%30.12 "HgN/A
12:30 PM79 °FPartly sunny.12 mph54%30.12 "HgN/A
12:00 PM79 °FPartly sunny.12 mph54%30.15 "HgN/A
11:30 AM79 °FPartly sunny.12 mph54%30.15 "HgN/A
11:00 AM77 °FPartly sunny.12 mph57%30.18 "HgN/A
10:00 AM75 °FPartly sunny.9 mph65%30.21 "HgN/A
9:00 AM73 °FScattered clouds.9 mph61%30.21 "HgN/A
8:30 AM73 °FPassing clouds.5 mph65%30.21 "HgN/A
8:00 AM72 °FPassing clouds.5 mph73%30.18 "HgN/A
7:30 AM68 °FPassing clouds.5 mph83%30.18 "HgN/A
7:00 AM64 °FPassing clouds.3 mph94%30.18 "HgN/A
6:00 AM63 °FSunny.3 mph100%30.15 "Hg10 mi
5:30 AM63 °FClear.3 mph100%30.12 "Hg5 mi
5:00 AM63 °FPassing clouds.3 mph100%30.12 "Hg5 mi
4:30 AM63 °FPassing clouds.3 mph100%30.12 "HgN/A
3:30 AM64 °FPassing clouds.3 mph94%30.09 "HgN/A
3:00 AM64 °FPassing clouds.2 mph88%30.09 "HgN/A
2:30 AM64 °FPassing clouds.3 mph88%30.09 "HgN/A
2:00 AM64 °FPassing clouds.5 mph88%30.09 "HgN/A
1:30 AM66 °FPassing clouds.3 mph83%30.09 "HgN/A
1:00 AM66 °FPassing clouds.5 mph83%30.09 "HgN/A
12:30 AM66 °FPassing clouds.No wind83%30.09 "HgN/A
12:00 AM66 °FPassing clouds.No wind83%30.12 "HgN/A
11:30 PM
Sep 15
68 °FPassing clouds.No wind78%30.12 "HgN/A
11:00 PM68 °FPassing clouds.No wind78%30.12 "HgN/A
10:30 PM68 °FPassing clouds.No wind78%30.12 "HgN/A
10:00 PM70 °FPassing clouds.5 mph73%30.12 "HgN/A
9:03 PM70 °FPassing clouds.3 mph73%30.12 "HgN/A
9:00 PM70 °FPassing clouds.3 mph78%30.12 "HgN/A
8:30 PM72 °FPassing clouds.5 mph73%30.09 "HgN/A
8:00 PM72 °FPassing clouds.3 mph73%30.09 "HgN/A
7:30 PM73 °FPassing clouds.5 mph69%30.09 "HgN/A
6:30 PM75 °FPassing clouds.5 mph65%30.09 "HgN/A
6:00 PM77 °FPassing clouds.7 mph61%30.07 "HgN/A
5:30 PM81 °FScattered clouds.7 mph51%30.07 "HgN/A
5:00 PM81 °FScattered clouds.9 mph42%30.07 "HgN/A
4:30 PM82 °FScattered clouds.9 mph42%30.07 "HgN/A
4:00 PM82 °FScattered clouds.9 mph42%30.07 "HgN/A
3:30 PM82 °FScattered clouds.9 mph42%30.07 "HgN/A
3:00 PM81 °FScattered clouds.9 mph48%30.07 "HgN/A
2:30 PM79 °FPartly sunny.9 mph51%30.07 "HgN/A
2:00 PM79 °FPartly sunny.9 mph51%30.09 "HgN/A
Weather by CustomWeather, © 2014

See weather overviewHow to use our weather pages